Tracking 30701 objects as of 14-Jun-2025
HD Live streaming from Space Station
objects crossing your sky now

NOAA 16 DEB

Track NOAA 16 DEB now!
10-day predictions


NORAD ID: 41536
Int'l Code: 2000-055NL
Perigee: 780.2 km
Apogee: 799.9 km
Inclination: 98.7 °
Period: 100.5 minutes
Semi major axis: 7161 km
RCS: Unknown
Launch date: September 21, 2000
Source: United States (US)
Launch site: AIR FORCE WESTERN TEST RANGE (AFWTR)

Note: This is SATELLITE DEBRIS
Your satellite tracking list
Your tracking list is empty




NASA's NSSDC Master Catalog

Two Line Element Set (TLE):
1 41536U 00055NL  25164.70404613  .00007625  00000-0  28165-2 0  9996
2 41536  98.7358 259.7214 0013729 184.9275 175.1775 14.32648621486625
Source of the keplerian elements: AFSPC